CW7701 Weather Reports


time (UTC)temp
C
wind
direction
speed
KPH
gust
KPH
rain 1hr
cm
rain 24hr
cm
rain mn
cm
humidity
%
barometer
mb
20260905233014 29 331 8.0 24.1 0.00 0.00 0.00 69 1009.1
20260905231512 32 319 11.3 27.4 0.00 0.00 0.00 62 1008.9
20260905230012 32 183 9.7 19.3 0.00 0.00 0.00 65 1007.9
20260905224509 32 163 9.7 20.9 0.00 0.00 0.00 60 1007.6
20260905223028 33 121 11.3 20.9 0.00 0.00 0.00 59 1007.5
20260905221522 35 149 11.3 25.7 0.00 0.00 0.00 58 1007.3
20260905220006 34 146 11.3 27.4 0.00 0.00 0.00 61 1007.6
20260905214505 34 115 12.9 25.7 0.00 0.00 0.00 63 1007.8
20260905213003 35 132 9.7 19.3 0.00 0.00 0.00 63 1008.0
20260905211559 35 148 8.0 20.9 0.00 0.00 0.00 64 1008.3
20260905210108 35 169 6.4 24.1 0.00 0.00 0.00 61 1008.5
20260905204553 35 181 11.3 19.3 0.00 0.00 0.00 61 1008.6
20260905203051 35 199 9.7 16.1 0.00 0.00 0.00 60 1009.1
20260905201550 34 157 9.7 16.1 0.00 0.00 0.00 60 1009.3
20260905200057 33 202 8.0 16.1 0.00 0.00 0.00 60 1009.7
20260905194541 32 156 11.3 19.3 0.00 0.00 0.00 62 1009.9
20260905193039 32 57 3.2 8.0 0.00 0.00 0.00 65 1010.1
20260905191540 32 57 4.8 8.0 0.00 0.00 0.00 65 1010.3
20260905190032 32 53 3.2 9.7 0.00 0.00 0.00 65 1010.4
20260905184535 33 33 4.8 12.9 0.00 0.00 0.00 61 1010.7
20260905183031 33 24 4.8 9.7 0.00 0.00 0.00 58 1010.9
20260905181530 35 18 3.2 6.4 0.00 0.00 0.00 56 1011.0
20260905180033 35 19 1.6 8.0 0.00 0.00 0.00 56 1010.9
20260905174525 34 5 3.2 8.0 0.00 0.00 0.00 58 1011.1
20260905173025 33 5 3.2 8.0 0.00 0.00 0.00 62 1011.2
20260905171538 33 5 1.6 9.7 0.00 0.00 0.00 59 1011.3
20260905170028 34 346 3.2 12.9 0.00 0.00 0.00 61 1011.5
20260905164518 33 314 1.6 6.4 0.00 0.00 0.00 64 1011.4
20260905163017 32 304 3.2 8.0 0.00 0.00 0.00 64 1011.4
20260905161511 31 304 1.6 6.4 0.00 0.00 0.00 70 1011.3
20260905160005 29 304 3.2 8.0 0.00 0.00 0.00 77 1011.4
20260905154601 28 301 1.6 6.4 0.00 0.00 0.00 81 1011.5
20260905153100 27 301 1.6 8.0 0.00 0.00 0.00 83 1011.6
20260905151559 27 300 1.6 8.0 0.00 0.00 0.00 85 1011.7
20260905150059 27 294 1.6 8.0 0.00 0.00 0.00 86 1011.6
20260905144558 26 293 1.6 4.8 0.00 0.00 0.00 86 1011.5
20260905143056 26 293 0.0 6.4 0.00 0.00 0.00 87 1011.4
20260905141556 26 287 3.2 6.4 0.00 0.00 0.00 87 1011.3
20260905140053 26 287 1.6 4.8 0.00 0.00 0.00 87 1011.0
20260905134557 26 287 1.6 4.8 0.00 0.00 0.00 87 1010.9
20260905133053 26 286 1.6 4.8 0.00 0.00 0.00 87 1010.5
20260905131553 26 286 1.6 6.4 0.00 0.00 0.00 86 1010.4
20260905130050 26 281 0.0 4.8 0.00 0.00 0.00 86 1010.1
20260905124550 26 216 1.6 4.8 0.00 0.00 0.00 86 1009.7
20260905123047 26 216 1.6 4.8 0.00 0.00 0.00 86 1009.8
20260905121546 26 215 1.6 4.8 0.00 0.00 0.00 86 1009.7
20260905120045 26 215 0.0 6.4 0.00 0.00 0.00 86 1009.6
20260905114555 26 215 0.0 4.8 0.00 0.00 0.00 87 1009.6
20260905113044 26 215 0.0 4.8 0.00 0.00 0.00 86 1009.7
20260905111542 26 215 1.6 4.8 0.00 0.00 0.00 86 1009.7
20260905110040 26 214 0.0 6.4 0.00 0.00 0.00 85 1009.7
20260905104545 27 214 0.0 3.2 0.00 0.00 0.00 84 1009.5
20260905103039 27 214 0.0 4.8 0.00 0.00 0.00 84 1009.5
20260905101539 27 214 1.6 6.4 0.00 0.00 0.00 85 1009.8
20260905100035 26 214 1.6 3.2 0.00 0.00 0.00 84 1009.8
20260905094540 27 214 0.0 4.8 0.00 0.00 0.00 84 1009.9
20260905093036 27 214 1.6 4.8 0.00 0.00 0.00 83 1009.6
20260905091529 27 214 1.6 4.8 0.00 0.00 0.00 82 1009.7
20260905090027 27 214 0.0 3.2 0.00 0.00 0.00 81 1009.8
20260905084530 27 214 1.6 3.2 0.00 0.00 0.00 81 1010.2
20260905083021 27 214 1.6 4.8 0.00 0.00 0.00 82 1010.4
20260905081518 27 214 1.6 4.8 0.00 0.00 0.00 81 1010.7
20260905080032 27 214 1.6 6.4 0.00 0.00 0.00 81 1010.9
20260905074512 27 208 1.6 4.8 0.00 0.00 0.00 81 1011.0
20260905073026 28 208 0.0 3.2 0.00 0.00 0.00 80 1010.6
20260905071507 28 208 0.0 3.2 0.00 0.00 0.00 79 1010.5
20260905070005 28 207 1.6 4.8 0.00 0.00 0.00 79 1010.4
20260905064509 28 207 1.6 3.2 0.00 0.00 0.00 79 1010.4
20260905063005 28 207 1.6 4.8 0.00 0.00 0.00 79 1010.5
20260905061504 28 207 0.0 4.8 0.00 0.00 0.00 79 1010.6
20260905060003 28 207 1.6 6.4 0.00 0.00 0.00 78 1010.7
20260905054503 29 207 0.0 4.8 0.00 0.00 0.00 77 1010.6
20260905053002 29 206 0.0 3.2 0.00 0.00 0.00 74 1010.7
20260905051601 29 205 3.2 6.4 0.00 0.00 0.00 75 1010.7
20260905050100 29 205 0.0 4.8 0.00 0.00 0.00 75 1010.9
20260905044600 29 205 4.8 8.0 0.00 0.00 0.00 74 1010.9
20260905043121 30 206 4.8 8.0 0.00 0.00 0.00 74 1010.8
20260905041558 30 212 3.2 8.0 0.00 0.00 0.00 75 1010.9
20260905040118 30 212 3.2 9.7 0.00 0.00 0.00 75 1011.1
20260905034600 30 209 1.6 9.7 0.00 0.00 0.00 76 1011.1
20260905033100 30 209 3.2 6.4 0.00 0.00 0.00 75 1011.0
20260905031556 30 209 3.2 16.1 0.00 0.00 0.00 76 1010.8
20260905030056 30 190 4.8 11.3 0.00 0.00 0.00 76 1010.7
20260905024555 30 198 3.2 8.0 0.00 0.00 0.00 76 1010.6
20260905023102 30 198 6.4 11.3 0.00 0.00 0.00 75 1010.5
20260905021554 30 183 6.4 11.3 0.00 0.00 0.00 75 1010.4
20260905020053 30 186 8.0 12.9 0.00 0.00 0.00 74 1010.0
20260905014553 30 171 8.0 14.5 0.00 0.00 0.00 73 1009.8
20260905013059 31 180 8.0 16.1 0.00 0.00 0.00 72 1009.8
20260905011551 31 184 6.4 14.5 0.00 0.00 0.00 72 1009.7
20260905010053 31 212 6.4 16.1 0.00 0.00 0.00 72 1009.5
20260905004552 31 176 8.0 16.1 0.00 0.00 0.00 71 1009.4
20260905003051 32 187 6.4 14.5 0.00 0.00 0.00 69 1009.3
20260905001550 32 180 9.7 17.7 0.00 0.00 0.00 67 1009.1
20260905000049 33 167 9.7 19.3 0.00 0.00 0.00 63 1009.1
20260904234552 33 181 9.7 17.7 0.00 0.00 0.00 62 1009.0